View from above orbital plane
|
View from above satellite
|
Ground track
|
The orbit data is extracted from the following two-line orbital elements,
1 11U 59001A 19348.18311272 .00000273 00000-0 12763-3 0 9991
2 11 32.8807 34.7517 1468125 279.9607 63.8915 11.85637786594604
Epoch (UTC): | 14 December 2019 04:23:40 |
Eccentricity: | 0.1468125 |
inclination: | 32.8807° |
perigee height: | 553 km |
apogee height: | 2938 km |
right ascension of ascending node: | 34.7517° |
argument of perigee: | 279.9607° |
revolutions per day: | 11.85637786 |
mean anomaly at epoch: | 63.8915° |
orbit number at epoch: | 59460 |
The dashed part of the orbit path shows where the satellite is in the earth's shadow,
|
|